This demonstration page uses our WeatherBlox Daily Observations layout. Learn more.

Left ArrowRight Arrow

39.51506, -84.39828

Hourly Observations for February 15, 2018

Temp ( °F °C ) Dew Point ( °F °C ) Humidity (%) Winds ( mph kmh ) Pressure ( in mb ) Visibility ( mi km ) Precip ( " mm )
12:15 am 00:15 Cloudy 59 14.8 57 13.8 94 94 SW 13 20 29.91 1013 10 16 0.00 0.00
12:35 am 00:35 Cloudy 59 14.9 57 13.8 93 93 SW 13 20 29.91 1013 10 16 0.00 0.00
12:55 am 00:55 Cloudy 59 14.8 57 13.7 93 93 SW 13 20 29.91 1013 10 16 0.00 0.00
1:15 am 01:15 Cloudy 59 14.8 57 13.7 93 93 SW 13 20 29.91 1013 10 16 0.00 0.00
1:35 am 01:35 Mostly Cloudy 58 14.6 56 13.4 93 93 SW 13 20 29.94 1014 10 16 0.00 0.00
1:55 am 01:55 Cloudy 58 14.5 56 13.5 94 94 WSW 10 17 29.94 1014 10 16 0.00 0.00
2:15 am 02:15 Mostly Cloudy 58 14.3 56 13.1 93 93 SW 12 19 29.94 1014 10 16 0.00 0.00
2:35 am 02:35 Cloudy 57 14.1 55 13 93 93 SW 10 17 29.94 1014 10 16 0.00 0.00
2:55 am 02:55 Cloudy 58 14.2 55 12.9 92 92 SW 10 17 29.94 1014 10 16 0.00 0.00
3:15 am 03:15 Cloudy 58 14.6 55 12.9 90 90 WSW 9 15 29.94 1014 10 16 0.00 0.00
3:35 am 03:35 Cloudy 57 14 55 12.7 92 92 WSW 8 13 29.94 1014 10 16 0.00 0.00
3:55 am 03:55 Cloudy 57 13.9 55 12.6 92 92 SW 8 13 29.94 1014 10 16 0.00 0.00
4:15 am 04:15 Cloudy 57 13.8 55 12.5 92 92 SW 7 11 29.94 1014 10 16 0.00 0.00
4:35 am 04:35 Cloudy 57 13.8 54 12.4 91 91 SW 8 13 29.94 1014 10 16 0.00 0.00
4:55 am 04:55 Cloudy 57 13.8 54 12.4 91 91 SW 8 13 29.94 1014 10 16 0.00 0.00
5:15 am 05:15 Cloudy 56 13.6 54 12.3 92 92 SW 6 9 29.94 1014 10 16 0.00 0.00
5:35 am 05:35 Cloudy 56 13.6 54 12.3 92 92 SW 6 9 29.94 1014 10 16 0.00 0.00
5:55 am 05:55 Cloudy 56 13.6 54 12.1 91 91 SW 5 7 29.94 1014 10 16 0.00 0.00
6:15 am 06:15 Cloudy 56 13.1 54 12 93 93 SSW 3 6 29.94 1014 10 16 0.00 0.00
6:35 am 06:35 Cloudy 55 12.6 53 11.7 94 94 Calm 29.91 1013 10 16 0.00 0.00
6:55 am 06:55 Cloudy 56 13.2 54 12 93 93 SW 6 9 29.91 1013 10 16 0.00 0.00
7:15 am 07:15 Cloudy 55 12.7 53 11.7 94 94 SW 6 9 29.94 1014 10 16 0.00 0.00
7:35 am 07:35 Cloudy 56 13.1 54 12 93 93 SSW 6 9 29.91 1013 10 16 0.00 0.00
7:55 am 07:55 Cloudy 55 12.7 53 11.7 94 94 Calm 29.94 1014 10 16 0.00 0.00
8:15 am 08:15 Partly Cloudy 54 12.2 53 11.5 96 96 SSW 7 11 29.94 1014 10 16 0.00 0.00
8:35 am 08:35 Sunny 56 13.4 54 12.3 93 93 SSW 8 13 29.91 1013 10 16 0.00 0.00
8:55 am 08:55 Cloudy 56 13.3 54 12.4 94 94 SW 6 9 29.91 1013 10 16 0.00 0.00
9:15 am 09:15 Mostly Cloudy 58 14.4 56 13.3 93 93 SW 10 17 29.88 1012 10 16 0.00 0.00
9:35 am 09:35 Sunny 58 14.7 56 13.6 93 93 SW 12 19 29.88 1012 10 16 0.00 0.00
9:55 am 09:55 Cloudy 59 14.9 57 13.8 93 93 SW 10 17 29.88 1012 10 16 0.00 0.00
10:15 am 10:15 Partly Cloudy 60 15.6 58 14.2 91 91 SW 12 19 29.88 1012 10 16 0.00 0.00
10:35 am 10:35 Partly Cloudy 61 15.9 58 14.3 90 90 SW 12 19 29.88 1012 10 16 0.00 0.00
10:55 am 10:55 Mostly Cloudy 62 16.4 58 14.6 89 89 SSW 10 17 29.85 1011 10 16 0.00 0.00
11:15 am 11:15 Cloudy 62 16.6 58 14.6 88 88 SW 10 17 29.85 1011 10 16 0.00 0.00
11:35 am 11:35 Cloudy 62 16.6 58 14.7 89 89 SW 12 19 29.85 1011 10 16 0.00 0.00
11:55 am 11:55 Cloudy 62 16.8 59 15 89 89 SW 10 17 29.85 1011 10 16 0.00 0.00
12:15 pm 12:15 Cloudy 64 17.7 60 15.4 86 86 SW 10 17 29.83 1010 10 16 0.00 0.00
12:35 pm 12:35 Mostly Cloudy 67 19.6 61 15.9 79 79 SW 14 22 29.83 1010 10 16 0.00 0.00
12:55 pm 12:55 Cloudy 67 19.6 60 15.8 79 79 SW 15 24 29.83 1010 10 16 0.00 0.00
1:15 pm 13:15 Cloudy 68 20.1 61 15.9 77 77 SW 16 26 29.80 1009 10 16 0.00 0.00
1:35 pm 13:35 Cloudy 68 20 61 15.9 77 77 SW 14 22 29.80 1009 10 16 0.00 0.00
1:55 pm 13:55 Mostly Cloudy 69 20.8 61 16.1 75 75 SW 20 31 29.77 1008 10 16 0.00 0.00
2:15 pm 14:15 Cloudy 68 20.1 60 15.8 76 76 SW 22 35 29.77 1008 10 16 0.00 0.00
2:35 pm 14:35 Cloudy 66 18.9 62 16.4 86 86 SW 20 31 29.77 1008 10 16 0.00 0.00
2:55 pm 14:55 Cloudy 67 19.5 62 16.5 83 83 SSW 15 24 29.74 1007 10 16 0.00 0.00
3:15 pm 15:15 Cloudy 67 19.4 61 16.1 81 81 SW 17 28 29.74 1007 10 16 0.00 0.00
3:35 pm 15:35 Cloudy 66 18.7 61 16.1 85 85 SW 14 22 29.74 1007 7 11 0.00 0.00
3:55 pm 15:55 Cloudy 65 18.1 62 16.5 90 90 SW 15 24 29.74 1007 7 11 0.00 0.00
4:15 pm 16:15 Cloudy 64 17.8 62 16.5 92 92 SW 15 24 29.74 1007 10 16 0.00 0.00
4:35 pm 16:35 Cloudy 64 18 61 16.3 90 90 SW 16 26 29.74 1007 10 16 0.00 0.00
4:55 pm 16:55 Cloudy 65 18.4 61 16.2 87 87 SW 15 24 29.74 1007 10 16 0.00 0.00
5:15 pm 17:15 Cloudy 65 18.1 61 16 88 88 SW 13 20 29.74 1007 10 16 0.00 0.00
5:35 pm 17:35 Mostly Cloudy 64 18 61 15.9 88 88 SW 10 17 29.74 1007 10 16 0.00 0.00
5:55 pm 17:55 Cloudy 64 17.9 60 15.7 87 87 SW 13 20 29.77 1008 10 16 0.00 0.00
6:15 pm 18:15 Mostly Cloudy 65 18.3 60 15.7 85 85 SW 12 19 29.77 1008 10 16 0.00 0.00
6:35 pm 18:35 Partly Cloudy 64 18 60 15.4 85 85 SW 13 20 29.74 1007 10 16 0.00 0.00
6:55 pm 18:55 Clear 64 17.9 59 15.1 84 84 SW 12 19 29.77 1008 10 16 0.00 0.00
7:15 pm 19:15 Partly Cloudy 64 17.8 59 14.9 83 83 SW 13 20 29.77 1008 10 16 0.00 0.00
7:35 pm 19:35 Partly Cloudy 64 17.6 59 14.8 84 84 WSW 8 13 29.77 1008 10 16 0.00 0.00
7:55 pm 19:55 Partly Cloudy 64 17.6 59 14.9 84 84 SW 12 19 29.77 1008 10 16 0.00 0.00
8:15 pm 20:15 Cloudy 63 17.2 59 15 87 87 SW 9 15 29.77 1008 10 16 0.00 0.00
8:35 pm 20:35 Cloudy 63 17.1 59 15 88 88 SSW 10 17 29.74 1007 10 16 0.00 0.00
8:55 pm 20:55 Cloudy 63 17 59 15 88 88 SW 9 15 29.74 1007 10 16 0.00 0.00
9:15 pm 21:15 Cloudy 62 16.7 59 15.1 90 90 SSW 8 13 29.71 1006 10 16 0.01 0.25
9:35 pm 21:35 Cloudy with Nearby Thunderstorms 62 16.5 59 15.2 92 92 WSW 5 7 29.71 1006 10 16 0.02 0.51
9:55 pm 21:55 Cloudy with Nearby Thunderstorms 62 16.5 60 15.5 94 94 NNW 22 35 29.74 1007 7 11 0.12 3.05
10:15 pm 22:15 Cloudy 58 14.3 55 12.7 90 90 W 18 30 29.74 1007 5 8 0.31 7.87
10:35 pm 22:35 Cloudy 57 14 55 12.8 93 93 WNW 9 15 29.77 1008 4 6 0.53 13.46
10:55 pm 22:55 Cloudy 57 14 55 13 94 94 WSW 10 17 29.77 1008 7 11 0.59 14.99
11:15 pm 23:15 Cloudy 57 13.9 55 13 94 94 SW 12 19 29.77 1008 7 11 0.06 1.52
11:35 pm 23:35 Cloudy 57 13.8 56 13.1 96 96 SSW 12 19 29.77 1008 5 8 0.09 2.29
11:55 pm 23:55 Cloudy 57 13.7 55 13 96 96 SW 10 17 29.77 1008 7 11 0.11 2.79

Powered by AerisWeather